Time,TemperatureF,DewpointF,PressureIn,WindDirection,WindDirectionDegrees,WindSpeedMPH,WindSpeedGustMPH,Humidity,HourlyPrecipIn,Conditions,Clouds,dailyrainin,SoftwareType,DateUTC
2015-01-29 00:04:00,27.1,11.3,30.03,West,269,10.4,10.4,51,0.00,,,0.00,WeatherDisplay:10.37,2015-01-29 05:04:00,
2015-01-29 00:11:00,27.2,11.4,30.03,South,190,0.0,2.3,51,0.00,,,0.00,WeatherDisplay:10.37,2015-01-29 05:11:00,
2015-01-29 00:16:00,27.2,11.4,30.03,SSW,197,10.4,10.4,51,0.00,,,0.00,WeatherDisplay:10.37,2015-01-29 05:16:00,
2015-01-29 00:23:00,27.2,11.9,30.03,WSW,246,0.0,2.9,52,0.00,,,0.00,WeatherDisplay:10.37,2015-01-29 05:23:00,
2015-01-29 00:28:00,27.2,11.9,30.03,West,263,6.9,6.9,52,0.00,,,0.00,WeatherDisplay:10.37,2015-01-29 05:28:00,
2015-01-29 00:35:00,27.3,12.4,30.03,SSW,192,0.0,4.5,53,0.00,,,0.00,WeatherDisplay:10.37,2015-01-29 05:35:00,
2015-01-29 00:40:00,27.2,12.3,30.01,WSW,257,10.4,10.4,53,0.00,,,0.00,WeatherDisplay:10.37,2015-01-29 05:40:00,
2015-01-29 00:47:00,27.3,12.8,30.01,SSW,209,0.0,2.7,54,0.00,,,0.00,WeatherDisplay:10.37,2015-01-29 05:47:00,
2015-01-29 00:52:00,27.4,13.3,30.00,WSW,242,11.5,11.5,55,0.00,,,0.00,WeatherDisplay:10.37,2015-01-29 05:52:00,
2015-01-29 01:00:00,27.5,13.8,30.00,WSW,241,0.0,2.4,56,0.00,,,0.00,WeatherDisplay:10.37,2015-01-29 06:00:00,
2015-01-29 01:05:00,27.6,14.3,29.99,SSW,203,4.6,4.6,57,0.00,,,0.00,WeatherDisplay:10.37,2015-01-29 06:05:00,
2015-01-29 01:12:00,27.6,14.7,29.99,WSW,240,0.0,3.1,58,0.00,,,0.00,WeatherDisplay:10.37,2015-01-29 06:12:00,
2015-01-29 01:17:00,27.6,15.1,29.99,SW,236,10.4,10.4,59,0.00,,,0.00,WeatherDisplay:10.37,2015-01-29 06:17:00,
2015-01-29 01:22:00,27.6,15.1,29.99,SSW,194,9.2,9.2,59,0.00,,,0.00,WeatherDisplay:10.37,2015-01-29 06:22:00,
2015-01-29 01:27:00,27.7,15.6,29.99,SW,234,9.2,9.2,60,0.00,,,0.00,WeatherDisplay:10.37,2015-01-29 06:27:00,
2015-01-29 01:32:00,27.8,16.1,29.98,SW,214,6.9,7.6,61,0.00,,,0.00,WeatherDisplay:10.37,2015-01-29 06:32:00,
2015-01-29 01:38:00,27.9,16.6,29.98,West,259,0.0,2.7,62,0.00,,,0.00,WeatherDisplay:10.37,2015-01-29 06:38:00,
2015-01-29 01:43:00,27.9,16.6,29.96,SW,234,16.1,16.1,62,0.00,,,0.00,WeatherDisplay:10.37,2015-01-29 06:43:00,
2015-01-29 01:50:00,27.9,16.9,29.96,WSW,255,0.0,2.6,63,0.00,,,0.00,WeatherDisplay:10.37,2015-01-29 06:50:00,
2015-01-29 01:55:00,27.9,16.9,29.95,WSW,244,11.5,11.5,63,0.00,,,0.00,WeatherDisplay:10.37,2015-01-29 06:55:00,
2015-01-29 02:03:00,28.0,17.4,29.95,WSW,238,0.0,5.5,64,0.00,,,0.00,WeatherDisplay:10.37,2015-01-29 07:03:00,
2015-01-29 02:08:00,28.1,17.5,29.95,West,267,12.7,12.7,64,0.00,,,0.00,WeatherDisplay:10.37,2015-01-29 07:08:00,
2015-01-29 02:15:00,28.2,17.6,29.95,SW,226,0.0,3.4,64,0.00,,,0.00,WeatherDisplay:10.37,2015-01-29 07:15:00,
2015-01-29 02:20:00,28.3,17.7,29.93,West,276,11.5,11.5,64,0.00,,,0.00,WeatherDisplay:10.37,2015-01-29 07:20:00,
2015-01-29 02:27:00,28.3,17.7,29.93,WSW,243,0.0,4.4,64,0.00,,,0.00,WeatherDisplay:10.37,2015-01-29 07:27:00,
2015-01-29 02:32:00,28.3,17.7,29.92,SW,227,11.5,11.5,64,0.00,,,0.00,WeatherDisplay:10.37,2015-01-29 07:32:00,
2015-01-29 02:39:00,28.4,17.4,29.92,WSW,250,7.0,7.0,63,0.00,,,0.00,WeatherDisplay:10.37,2015-01-29 07:39:00,
2015-01-29 02:44:00,28.5,17.9,29.91,SW,219,12.7,12.7,64,0.00,,,0.00,WeatherDisplay:10.37,2015-01-29 07:44:00,
2015-01-29 02:52:00,28.6,17.6,29.91,SW,228,0.0,4.1,63,0.00,,,0.00,WeatherDisplay:10.37,2015-01-29 07:52:00,
2015-01-29 02:57:00,28.8,17.8,29.91,West,263,8.0,8.0,63,0.00,,,0.00,WeatherDisplay:10.37,2015-01-29 07:57:00,
2015-01-29 03:04:00,28.9,17.9,29.91,SSW,200,0.0,1.1,63,0.00,,,0.00,WeatherDisplay:10.37,2015-01-29 08:04:00,
2015-01-29 03:09:00,29.0,18.0,29.91,SSW,203,3.5,3.5,63,0.00,,,0.00,WeatherDisplay:10.37,2015-01-29 08:09:00,
2015-01-29 03:16:00,29.1,18.1,29.91,SW,217,0.0,1.2,63,0.00,,,0.00,WeatherDisplay:10.37,2015-01-29 08:16:00,
2015-01-29 03:21:00,29.2,18.2,29.91,SW,226,4.6,4.6,63,0.00,,,0.00,WeatherDisplay:10.37,2015-01-29 08:21:00,
2015-01-29 03:28:00,29.2,18.2,29.91,SSW,210,0.0,1.2,63,0.00,,,0.00,WeatherDisplay:10.37,2015-01-29 08:28:00,
2015-01-29 03:33:00,29.4,18.3,29.90,SSW,213,0.0,2.8,63,0.00,,,0.00,WeatherDisplay:10.37,2015-01-29 08:33:00,
2015-01-29 03:38:00,29.3,18.3,29.90,SSW,205,11.5,11.5,63,0.00,,,0.00,WeatherDisplay:10.37,2015-01-29 08:38:00,
2015-01-29 03:43:00,29.3,18.3,29.90,SSW,198,6.9,6.9,63,0.00,,,0.00,WeatherDisplay:10.37,2015-01-29 08:43:00,
2015-01-29 03:48:00,29.3,18.3,29.89,SSW,198,3.5,3.5,63,0.00,,,0.00,WeatherDisplay:10.37,2015-01-29 08:48:00,
2015-01-29 03:53:00,29.4,18.3,29.89,SSW,196,2.3,0.0,63,0.00,,,0.00,WeatherDisplay:10.37,2015-01-29 08:53:00,
2015-01-29 03:58:00,29.4,18.3,29.89,South,178,3.5,3.5,63,0.00,,,0.00,WeatherDisplay:10.37,2015-01-29 08:58:00,
2015-01-29 04:04:00,29.5,18.4,29.89,SSW,194,0.0,1.9,63,0.00,,,0.00,WeatherDisplay:10.37,2015-01-29 09:04:00,
2015-01-29 04:09:00,29.6,18.5,29.89,SW,230,4.6,4.6,63,0.00,,,0.00,WeatherDisplay:10.37,2015-01-29 09:09:00,
2015-01-29 04:14:00,29.6,18.5,29.89,SSW,192,9.2,9.2,63,0.00,,,0.00,WeatherDisplay:10.37,2015-01-29 09:14:00,
2015-01-29 04:19:00,29.7,18.6,29.88,SW,227,4.6,4.6,63,0.00,,,0.00,WeatherDisplay:10.37,2015-01-29 09:19:00,
2015-01-29 04:24:00,29.8,18.7,29.87,SSW,211,10.4,10.4,63,0.00,,,0.00,WeatherDisplay:10.37,2015-01-29 09:24:00,
2015-01-29 04:29:00,29.8,18.4,29.86,SW,215,6.9,6.9,62,0.00,,,0.00,WeatherDisplay:10.37,2015-01-29 09:29:00,
2015-01-29 04:34:00,29.8,18.7,29.86,SSW,203,6.9,6.9,63,0.00,,,0.00,WeatherDisplay:10.37,2015-01-29 09:34:00,
2015-01-29 04:39:00,29.5,19.2,29.86,SW,228,13.8,0.0,65,0.00,CLR,,0.00,WeatherDisplay:10.37,2015-01-29 09:39:00,
2015-01-29 04:44:00,29.1,19.5,29.86,WSW,242,11.5,11.5,67,0.00,,,0.00,WeatherDisplay:10.37,2015-01-29 09:44:00,
2015-01-29 04:49:00,28.7,19.8,29.85,SSW,207,10.4,10.4,69,0.00,,,0.00,WeatherDisplay:10.37,2015-01-29 09:49:00,
2015-01-29 04:54:00,28.2,20.3,29.85,SSW,209,10.4,10.4,72,0.00,,,0.00,WeatherDisplay:10.37,2015-01-29 09:54:00,
2015-01-29 04:59:00,27.8,20.6,29.85,SW,218,6.9,6.9,74,0.00,,,0.00,WeatherDisplay:10.37,2015-01-29 09:59:00,
2015-01-29 05:04:00,27.4,21.1,29.85,SSW,200,0.0,1.7,77,0.00,,,0.00,WeatherDisplay:10.37,2015-01-29 10:04:00,
2015-01-29 05:09:00,27.1,21.5,29.84,SW,218,11.5,11.5,79,0.00,,,0.00,WeatherDisplay:10.37,2015-01-29 10:09:00,
2015-01-29 05:16:00,26.7,21.7,29.84,SSW,211,0.0,3.3,81,0.00,,,0.00,WeatherDisplay:10.37,2015-01-29 10:16:00,
2015-01-29 05:21:00,26.6,21.8,29.84,WSW,242,9.2,9.2,82,0.00,,,0.00,WeatherDisplay:10.37,2015-01-29 10:21:00,
2015-01-29 05:28:00,26.3,21.8,29.83,SW,216,0.0,2.3,83,0.00,,,0.00,WeatherDisplay:10.37,2015-01-29 10:28:00,
2015-01-29 05:33:00,26.3,22.1,29.83,WSW,252,6.9,7.4,84,0.00,,,0.00,WeatherDisplay:10.37,2015-01-29 10:33:00,
2015-01-29 05:40:00,26.3,22.4,29.83,WSW,249,0.0,4.0,85,0.00,,,0.00,WeatherDisplay:10.37,2015-01-29 10:40:00,
2015-01-29 05:45:00,26.2,22.6,29.81,WSW,256,11.5,11.5,86,0.00,,,0.00,WeatherDisplay:10.37,2015-01-29 10:45:00,
2015-01-29 05:52:00,26.3,22.7,29.81,SW,214,0.0,2.8,86,0.00,,,0.00,WeatherDisplay:10.37,2015-01-29 10:52:00,
2015-01-29 05:57:00,26.5,23.2,29.81,SSW,205,5.8,5.8,87,0.00,,,0.00,WeatherDisplay:10.37,2015-01-29 10:57:00,
2015-01-29 06:02:00,26.5,23.2,29.80,South,176,9.2,9.2,87,0.00,,,0.00,WeatherDisplay:10.37,2015-01-29 11:02:00,
2015-01-29 06:07:00,26.5,23.2,29.80,WSW,247,9.2,9.2,87,0.00,,,0.00,WeatherDisplay:10.37,2015-01-29 11:07:00,